Погода в Бабошине

Россия / Тульская область     54°13′11″N   37°07′57″E
темп.,
°C
ветер,
м/с
пор.,
м/с
влажн.,
%
обл.,
%
осадки,
мм/ч
давл.,
гПа
погр.,
м
19 апреля, пн
пн1900:00+6св599199 0.4 1019327
03:00+5всв499698 0.4 1020279
06:00+5св499477 0.1 1020333
09:00+7всв6108599 0.1 1020601
12:00+5всв61191100 0.4 1020879
15:00+6всв51093100 3.3 10201132
18:00+5всв71296100 2.3 10201014
21:00+5всв71295100 3.5 10201049
20 апреля, вт
вт2000:00+4всв71396100 0.2 1019703
03:00+4всв71394100 0.4 1018636
06:00+4в71491100 0.7 1018679
09:00+5в71090100 0.7 1018693
12:00+3в61196100 0.1 1017529
15:00+3всв71296100 0.1 1015514
18:00+3всв61297100 0.0 1013593
21:00+1всв71497100 1.6 1010526
21 апреля, ср
ср2100:00+1св61499100 5.8 1005615
03:000с612100100 12.3 1001481
06:000сз61099100 8.3 999326
09:00+1з611100100 9.2 1001495
12:00+1зюз713100100 0.1 1005600
15:00+2юз612100100 0.1 1008525
18:00+3ююз39100100 0.0 1010223
21:00+3ююз410100100 0.1 1012257
22 апреля, чт
чт2200:00+3ююз5119858 0.2 1013283
03:00+1ю4109699 0.2 1014190
06:00+2ю4129498 0.0 1014262
09:00+4ююз51198100 1.5 1015304
12:00+11юз797567 0.3 10151111
15:00+13юз686531 1.5 10151437
18:00+12юз477546 1.3 1016251
21:00+8ю33885 1.9 101838
23 апреля, пт
пт2300:00+7ю498781 0.0 1018133
03:00+8ю3887100 0.0 1017173
06:00+8ю3987100 0.0 1017181
09:00+10ю4108099 0.0 1017310
12:00+16ю794863 0.0 10162309
15:00+14ю6105896 0.0 10151146
18:00+14ююв611598 0.0 1013631
21:00+10ю5137468 0.1 1013312